Location: Makanda
(37.6176°N, 89.2090°W)
Time: 23:37:10
(UTC+00:00)

In-Cosmos 22 - Pass Details

Date: 23 September 2019
Orbit: 785 x 876 km, 81.2° (Epoch: 20 October)

Event Time Altitude Azimuth Distance (km) Brightness Sun altitude
Rises 01:18:14 0° 352° (N) 3,320 7.6 -17.3°
Reaches altitude 10° 01:20:36 10° 353° (N) 2,397 6.8 -17.8°
Maximum altitude 01:26:02 81° 81° (E) 837 4.0 -18.8°
Drops below altitude 10° 01:31:34 10° 169° (S) 2,442 6.3 -19.9°
Enters shadow 01:31:42 - 169° (S) 2,494 6.4 -19.9°
